TimeCDT,TemperatureF,Dew PointF,Humidity,Sea Level PressureIn,VisibilityMPH,Wind Direction,Wind SpeedMPH,Gust SpeedMPH,PrecipitationIn,Events,Conditions,WindDirDegrees,DateUTC
12:13 AM,3.2,-0.4,85,29.95,10.0,NW,17.3,-,N/A,,Scattered Clouds,320,2013-03-19 05:13:00
12:33 AM,3.2,-2.2,78,29.95,10.0,NW,17.3,-,N/A,,Clear,320,2013-03-19 05:33:00
1:13 AM,1.4,-2.2,85,29.95,10.0,NW,15.0,-,N/A,,Clear,310,2013-03-19 06:13:00
1:33 AM,1.4,-4.0,78,29.95,10.0,NW,16.1,-,N/A,,Clear,320,2013-03-19 06:33:00
1:53 AM,1.4,-4.0,78,29.96,10.0,NW,16.1,-,N/A,,Clear,310,2013-03-19 06:53:00
2:13 AM,1.4,-4.0,78,29.97,10.0,NW,16.1,-,N/A,,Clear,310,2013-03-19 07:13:00
2:33 AM,-0.4,-5.8,78,29.98,10.0,NW,12.7,-,N/A,,Clear,310,2013-03-19 07:33:00
2:53 AM,-0.4,-5.8,78,29.98,10.0,NW,12.7,-,N/A,,Clear,310,2013-03-19 07:53:00
3:13 AM,-0.4,-7.6,72,29.99,10.0,NW,12.7,-,N/A,,Clear,310,2013-03-19 08:13:00
3:33 AM,-2.2,-7.6,78,30.00,10.0,NW,11.5,-,N/A,,Clear,310,2013-03-19 08:33:00
3:53 AM,-2.2,-7.6,78,30.00,10.0,NW,13.8,-,N/A,,Clear,320,2013-03-19 08:53:00
4:13 AM,-2.2,-7.6,78,30.00,10.0,NW,12.7,-,N/A,,Clear,320,2013-03-19 09:13:00
4:33 AM,-2.2,-7.6,78,30.01,10.0,NW,12.7,-,N/A,,Clear,310,2013-03-19 09:33:00
4:53 AM,-2.2,-7.6,78,30.01,10.0,NW,11.5,-,N/A,,Clear,320,2013-03-19 09:53:00
5:13 AM,-2.2,-7.6,78,30.02,10.0,NW,13.8,-,N/A,,Clear,320,2013-03-19 10:13:00
5:33 AM,-4.0,-9.4,78,30.02,10.0,NW,13.8,-,N/A,,Clear,310,2013-03-19 10:33:00
5:53 AM,-4.0,-9.4,78,30.03,10.0,NW,12.7,-,N/A,,Clear,320,2013-03-19 10:53:00
6:13 AM,-2.2,-9.4,71,30.04,10.0,NW,12.7,-,N/A,,Clear,320,2013-03-19 11:13:00
6:53 AM,-4.0,-11.2,71,30.05,10.0,NW,9.2,-,N/A,,Clear,320,2013-03-19 11:53:00
7:13 AM,-5.8,-11.2,77,30.06,10.0,NW,10.4,-,N/A,,Clear,320,2013-03-19 12:13:00
7:34 AM,-7.6,-13.0,77,30.07,10.0,NW,9.2,-,N/A,,Clear,320,2013-03-19 12:34:00
7:53 AM,-7.6,-13.0,77,30.09,10.0,NW,11.5,-,N/A,,Clear,310,2013-03-19 12:53:00
8:13 AM,-5.8,-11.2,77,30.10,10.0,NW,11.5,-,N/A,,Clear,310,2013-03-19 13:13:00
8:34 AM,-5.8,-11.2,77,30.10,10.0,NW,13.8,-,N/A,,Clear,320,2013-03-19 13:34:00
8:53 AM,-2.2,-9.4,71,30.11,10.0,NNW,12.7,-,N/A,,Clear,330,2013-03-19 13:53:00
9:13 AM,-2.2,-9.4,71,30.12,10.0,NNW,12.7,-,N/A,,Clear,330,2013-03-19 14:13:00
9:34 AM,-2.2,-9.4,71,30.13,10.0,NNW,11.5,-,N/A,,Clear,330,2013-03-19 14:34:00
9:53 AM,-0.4,-7.6,72,30.13,10.0,NW,9.2,-,N/A,,Scattered Clouds,310,2013-03-19 14:53:00
10:13 AM,-0.4,-7.6,72,30.13,10.0,NW,9.2,-,N/A,,Scattered Clouds,320,2013-03-19 15:13:00
10:34 AM,1.4,-7.6,66,30.14,10.0,NW,10.4,-,N/A,,Scattered Clouds,320,2013-03-19 15:34:00
10:53 AM,1.4,-7.6,66,30.14,10.0,NW,11.5,-,N/A,,Clear,320,2013-03-19 15:53:00
11:13 AM,1.4,-5.8,72,30.15,10.0,NW,12.7,-,N/A,,Clear,320,2013-03-19 16:13:00
11:34 AM,3.2,-5.8,66,30.16,10.0,NW,12.7,-,N/A,,Clear,320,2013-03-19 16:34:00
11:53 AM,3.2,-5.8,66,30.16,10.0,NNW,15.0,-,N/A,,Clear,330,2013-03-19 16:53:00
12:13 PM,3.2,-4.0,72,30.16,10.0,NNW,15.0,-,N/A,,Scattered Clouds,330,2013-03-19 17:13:00
12:33 PM,6.8,-2.2,67,30.17,10.0,NNW,16.1,-,N/A,,Mostly Cloudy,330,2013-03-19 17:33:00
12:53 PM,6.8,-2.2,67,30.17,10.0,NW,17.3,-,N/A,,Overcast,320,2013-03-19 17:53:00
1:13 PM,8.6,-0.4,67,30.17,10.0,NW,17.3,-,N/A,,Overcast,320,2013-03-19 18:13:00
1:33 PM,8.6,-0.4,67,30.17,10.0,NNW,15.0,18.4,N/A,,Mostly Cloudy,330,2013-03-19 18:33:00
1:53 PM,8.6,-0.4,67,30.17,10.0,NW,16.1,-,N/A,,Scattered Clouds,320,2013-03-19 18:53:00
2:13 PM,8.6,-0.4,67,30.18,10.0,NNW,20.7,-,N/A,,Scattered Clouds,330,2013-03-19 19:13:00
2:33 PM,10.4,-0.4,62,30.19,10.0,NNW,18.4,25.3,N/A,,Clear,330,2013-03-19 19:33:00
2:53 PM,10.4,-0.4,62,30.19,10.0,NNW,20.7,-,N/A,,Clear,330,2013-03-19 19:53:00
3:13 PM,10.4,-0.4,62,30.19,10.0,NNW,17.3,-,N/A,,Clear,330,2013-03-19 20:13:00
3:33 PM,10.4,-2.2,57,30.20,10.0,NNW,19.6,-,N/A,,Clear,330,2013-03-19 20:33:00
3:53 PM,10.4,-0.4,62,30.20,10.0,NNW,16.1,-,N/A,,Clear,330,2013-03-19 20:53:00
4:13 PM,12.2,-0.4,57,30.21,10.0,NW,17.3,21.9,N/A,,Clear,320,2013-03-19 21:13:00
4:33 PM,12.2,-0.4,57,30.22,10.0,NNW,18.4,-,N/A,,Clear,330,2013-03-19 21:33:00
4:53 PM,12.2,-0.4,57,30.23,10.0,NNW,13.8,-,N/A,,Clear,330,2013-03-19 21:53:00
5:13 PM,12.2,-0.4,57,30.23,10.0,NNW,16.1,-,N/A,,Clear,330,2013-03-19 22:13:00
5:33 PM,12.2,-0.4,57,30.24,10.0,NNW,13.8,-,N/A,,Clear,330,2013-03-19 22:33:00
5:53 PM,12.2,-0.4,57,30.24,10.0,NNW,13.8,20.7,N/A,,Clear,330,2013-03-19 22:53:00
6:13 PM,10.4,-0.4,62,30.25,10.0,NNW,11.5,-,N/A,,Clear,330,2013-03-19 23:13:00
6:33 PM,10.4,-0.4,62,30.25,10.0,NW,11.5,-,N/A,,Clear,320,2013-03-19 23:33:00
6:53 PM,8.6,-0.4,67,30.25,10.0,NW,12.7,-,N/A,,Clear,320,2013-03-19 23:53:00
7:14 PM,8.6,-0.4,67,30.26,10.0,NW,13.8,-,N/A,,Clear,320,2013-03-20 00:14:00
7:33 PM,6.8,-0.4,72,30.26,10.0,NW,11.5,-,N/A,,Clear,320,2013-03-20 00:33:00
7:53 PM,6.8,-0.4,72,30.27,10.0,NW,12.7,-,N/A,,Clear,320,2013-03-20 00:53:00
8:14 PM,3.2,-2.2,78,30.28,10.0,NW,10.4,-,N/A,,Clear,320,2013-03-20 01:14:00
8:53 PM,3.2,-2.2,78,30.28,10.0,NW,11.5,-,N/A,,Clear,320,2013-03-20 01:53:00
9:14 PM,3.2,-2.2,78,30.28,10.0,NW,12.7,-,N/A,,Clear,320,2013-03-20 02:14:00
9:33 PM,1.4,-2.2,85,30.29,10.0,NW,12.7,-,N/A,,Clear,320,2013-03-20 02:33:00
9:53 PM,1.4,-2.2,85,30.29,10.0,NW,13.8,-,N/A,,Clear,320,2013-03-20 02:53:00
10:13 PM,1.4,-2.2,85,30.29,10.0,NW,13.8,-,N/A,,Clear,320,2013-03-20 03:13:00
10:33 PM,3.2,-2.2,78,30.29,10.0,NW,13.8,-,N/A,,Clear,310,2013-03-20 03:33:00
10:53 PM,1.4,-4.0,78,30.30,10.0,NW,13.8,-,N/A,,Clear,320,2013-03-20 03:53:00
11:13 PM,1.4,-2.2,85,30.30,10.0,NW,10.4,-,N/A,,Clear,310,2013-03-20 04:13:00
11:33 PM,-0.4,-4.0,85,30.30,10.0,NW,12.7,-,N/A,,Clear,320,2013-03-20 04:33:00
11:53 PM,1.4,-2.2,85,30.30,10.0,NW,13.8,-,N/A,,Clear,320,2013-03-20 04:53:00